Date String (YYYY-MM-DD hh:mm:ss) UTC,Instrument flags,Ambient pressure (hPa),Sample flow (lpm),Bypass flow (lpm),Sample temperature (°C),Ambient temperature (°C),ASC tube jacket temperature (°C),LED temperature (°C),Box temperature (°C),Sample RH (%),Span deviation,Mass concentration (μg/m³),Mass concentration (μg/m³),Mass concentration (μg/m³)
DateTimeUTC,F1_M11,P_M11,Q1_M11,Q2_M11,T1_M11,T2_M11,T3_M11,T4_M11,T5_M11,U1_M11,ZSPAN_M11,X0_M11,X2_M11,X1_M11
2021-09-06 14:00:00,,0830.5,5.00,0.00,30.4,29.5,00.0,39.5,32.1,08.4,0001.6,0027.16,0019.45,0018.58
2021-09-06 14:01:00,,0830.5,5.00,0.00,30.5,29.5,00.0,39.5,32.2,08.4,0001.7,0027.15,0019.49,0018.66
2021-09-06 14:02:00,,0830.5,5.01,0.00,30.5,29.6,00.0,39.5,32.2,08.6,0001.8,0027.19,0019.54,0018.69
2021-09-06 14:03:00,,0830.5,4.99,0.00,30.5,29.5,00.0,39.5,32.2,08.6,0001.1,0026.81,0019.61,0018.75
2021-09-06 14:04:00,,0830.4,4.99,0.00,30.5,28.4,00.0,39.5,32.0,08.7,0000.8,0026.75,0019.67,0018.81
2021-09-06 14:05:00,,0830.4,5.00,0.00,30.3,26.8,00.0,39.5,31.6,09.0,0001.1,0026.58,0019.72,0018.81
2021-09-06 14:06:00,,0830.4,5.00,0.00,30.2,26.8,00.0,39.4,31.5,09.0,0001.4,0026.28,0019.75,0018.82
2021-09-06 14:07:00,,0830.3,5.01,0.00,30.2,27.2,00.0,39.4,31.6,09.3,0002.0,0026.35,0019.76,0018.82
2021-09-06 14:08:00,,0830.4,5.00,0.00,30.1,27.6,00.0,39.4,31.6,09.3,0002.6,0026.97,0019.77,0018.81
2021-09-06 14:09:00,,0830.4,5.00,0.00,30.1,27.9,00.0,39.3,31.6,09.1,0002.7,0027.32,0019.79,0018.83
2021-09-06 14:10:00,,0830.5,4.99,0.00,30.1,28.2,00.0,39.3,31.7,08.9,0002.1,0027.29,0019.81,0018.89
2021-09-06 14:11:00,,0830.4,4.98,0.00,30.1,28.4,00.0,39.3,31.7,08.8,0001.6,0027.34,0019.91,0018.96
2021-09-06 14:12:00,,0830.4,5.00,0.00,30.1,28.6,00.0,39.3,31.7,09.1,0002.4,0027.56,0019.98,0018.98
2021-09-06 14:13:00,,0830.3,5.01,0.00,30.1,28.7,00.0,39.3,31.8,09.1,0002.7,0027.54,0019.99,0018.99
2021-09-06 14:14:00,,0830.4,4.99,0.00,30.1,28.8,00.0,39.3,31.8,09.3,0002.8,0027.63,0019.99,0018.99
2021-09-06 14:15:00,,0830.4,5.01,0.00,30.2,28.9,00.0,39.3,31.9,09.4,0002.5,0027.68,0019.99,0019.00
2021-09-06 14:16:00,,0830.4,4.99,0.00,30.2,29.0,00.0,39.3,31.9,09.1,0002.3,0027.53,0019.99,0019.05
2021-09-06 14:17:00,,0830.4,5.00,0.00,30.2,29.1,00.0,39.3,31.9,08.6,0002.4,0027.81,0020.04,0019.13
2021-09-06 14:18:00,,0830.4,5.01,0.00,30.2,29.2,00.0,39.3,31.9,08.8,0002.0,0028.10,0020.13,0019.22
2021-09-06 14:19:00,,0830.4,4.99,0.00,30.2,29.2,00.0,39.3,32.0,08.8,0001.0,0028.14,0020.22,0019.32
2021-09-06 14:20:00,,0830.5,5.00,0.00,30.3,29.3,00.0,39.3,32.0,08.6,0000.4,0028.20,0020.28,0019.40
2021-09-06 14:21:00,,0830.5,5.00,0.00,30.3,29.3,00.0,39.3,32.0,08.7,0000.5,0028.33,0020.33,0019.44
2021-09-06 14:22:00,,0830.4,5.00,0.00,30.3,29.3,00.0,39.4,32.1,08.8,0000.9,0028.73,0020.39,0019.49
2021-09-06 14:23:00,,0830.4,5.00,0.00,30.3,29.2,00.0,39.4,32.0,09.0,0000.8,0028.70,0020.46,0019.58
2021-09-06 14:24:00,,0830.3,5.00,0.00,30.3,27.6,00.0,39.3,31.7,10.5,0000.7,0028.85,0020.53,0019.63
2021-09-06 14:25:00,,0830.4,5.01,0.00,30.1,26.5,00.0,39.3,31.4,09.9,0000.7,0028.88,0020.53,0019.66
2021-09-06 14:26:00,,0830.3,4.99,0.00,30.0,26.8,00.0,39.3,31.4,11.8,0000.6,0028.75,0020.52,0019.65
2021-09-06 14:27:00,,0830.4,5.00,0.00,30.0,27.2,00.0,39.2,31.5,12.7,0001.1,0029.21,0020.33,0019.43
2021-09-06 14:28:00,,0830.3,5.01,0.00,30.0,27.6,00.0,39.2,31.5,12.3,0001.3,0029.58,0020.12,0019.19
2021-09-06 14:29:00,,0830.3,4.99,0.00,30.0,27.9,00.0,39.2,31.5,12.4,0001.3,0029.25,0019.95,0019.01
2021-09-06 14:30:00,,0830.4,5.00,0.00,30.0,28.2,00.0,39.1,31.6,12.2,0001.7,0029.52,0019.76,0018.82
2021-09-06 14:31:00,,0830.4,5.01,0.00,30.0,28.4,00.0,39.1,31.6,12.4,0002.2,0030.26,0019.60,0018.65
2021-09-06 14:32:00,,0830.4,4.99,0.00,30.0,28.6,00.0,39.1,31.7,12.2,0002.3,0029.76,0019.37,0018.45
2021-09-06 14:33:00,,0830.4,5.00,0.00,30.0,28.7,00.0,39.1,31.7,12.0,0002.3,0029.72,0019.17,0018.25
2021-09-06 14:34:00,,0830.3,5.01,0.00,30.0,28.9,00.0,39.1,31.7,11.2,0001.9,0030.06,0018.99,0018.08
2021-09-06 14:35:00,,0830.3,4.99,0.00,30.1,29.0,00.0,39.1,31.8,11.8,0001.2,0030.01,0018.84,0017.94
2021-09-06 14:36:00,,0830.3,5.01,0.00,30.1,29.0,00.0,39.2,31.9,12.0,0001.2,0030.37,0018.75,0017.82
2021-09-06 14:37:00,,0830.3,5.00,0.00,30.1,29.1,00.0,39.2,31.9,12.5,0001.6,0030.45,0018.59,0017.65
2021-09-06 14:38:00,,0830.3,4.99,0.00,30.2,29.2,00.0,39.2,31.9,13.0,0001.0,0030.14,0018.43,0017.49
2021-09-06 14:39:00,,0830.3,5.00,0.00,30.2,29.3,00.0,39.2,32.0,11.5,0000.6,0029.75,0018.33,0017.40
2021-09-06 14:40:00,,0830.3,5.01,0.00,30.2,29.3,00.0,39.2,32.0,11.9,0000.3,0029.84,0018.25,0017.30
2021-09-06 14:41:00,,0830.4,4.99,0.00,30.3,29.3,00.0,39.2,32.0,13.1,0000.3,0028.81,0018.10,0017.16
2021-09-06 14:42:00,,0830.4,5.02,0.00,30.2,28.1,00.0,39.2,31.8,13.5,0000.4,0027.23,0017.72,0016.79
2021-09-06 14:43:00,,0830.3,4.98,0.00,30.1,26.6,00.0,39.2,31.3,13.2,0000.3,0026.46,0017.37,0016.41
2021-09-06 14:44:00,,0830.4,5.01,0.00,30.0,26.8,00.0,39.2,31.4,13.4,0000.3,0025.66,0016.96,0016.02
2021-09-06 14:45:00,,0830.3,4.99,0.00,29.9,27.2,00.0,39.1,31.4,13.2,0000.6,0025.07,0016.49,0015.58
2021-09-06 14:46:00,,0830.3,5.00,0.00,29.9,27.6,00.0,39.1,31.4,12.9,0000.8,0025.44,0016.10,0015.17
2021-09-06 14:47:00,,0830.3,4.99,0.00,29.9,27.9,00.0,39.1,31.5,13.1,0001.0,0025.54,0015.61,0014.73
2021-09-06 14:48:00,,0830.3,4.99,0.00,29.9,28.2,00.0,39.1,31.6,12.9,0001.0,0026.22,0015.17,0014.30
2021-09-06 14:49:00,,0830.3,5.02,0.00,30.0,28.4,00.0,39.1,31.6,13.0,0001.0,0027.26,0014.95,0014.05
2021-09-06 14:50:00,,0830.4,4.99,0.00,30.0,28.6,00.0,39.1,31.7,13.3,0001.4,0028.04,0014.67,0013.78
2021-09-06 14:51:00,,0830.4,5.00,0.00,30.0,28.8,00.0,39.1,31.8,13.2,0001.9,0028.10,0014.26,0013.43
2021-09-06 14:52:00,,0830.3,5.00,0.00,30.0,28.9,00.0,39.1,31.8,13.5,0002.2,0028.33,0013.96,0013.13
2021-09-06 14:53:00,,0830.3,5.00,0.00,30.1,29.0,00.0,39.1,31.9,13.9,0002.2,0028.49,0013.92,0013.04
2021-09-06 14:54:00,,0830.3,5.00,0.00,30.1,29.1,00.0,39.1,31.9,13.7,0002.5,0028.69,0013.97,0013.11
2021-09-06 14:55:00,,0830.3,5.00,0.00,30.1,29.2,00.0,39.1,31.9,14.0,0002.4,0029.94,0014.07,0013.16
2021-09-06 14:56:00,,0830.3,4.99,0.00,30.2,29.3,00.0,39.1,32.0,14.4,0002.0,0030.13,0014.17,0013.23
2021-09-06 14:57:00,,0830.3,5.01,0.00,30.2,28.8,00.0,39.2,31.9,13.4,0002.5,0031.05,0014.32,0013.39
2021-09-06 14:58:00,,0830.3,4.99,0.00,30.1,27.0,00.0,39.1,31.4,12.2,0002.8,0031.76,0014.67,0013.70
2021-09-06 14:59:00,,0830.2,5.01,0.00,29.9,26.7,00.0,39.1,31.3,12.6,0003.2,0030.74,0015.02,0014.06
